• In Germany
  • List of Countries
  • For 7 days
  • Water Temperature
  • Satellite Maps
  • Weather Map
  • Weather Widgets
  • user-avatar
    Login

    Hourly Weather Chitkan

    Today, 23 April, Monday

    Time Temperature Precipitation Wind Pressure Humidity
    00:00 +6°C° 0 mm 2 mps 718 mmHg 67%
    01:00 +6°C° 0 mm 2 mps 718 mmHg 63%
    02:00 +6°C° 0 mm 2 mps 718 mmHg 62%
    03:00 +5°C° 0 mm 2 mps 718 mmHg 62%
    04:00 +5°C° 0 mm 2 mps 718 mmHg 62%
    05:00 +7°C° 0 mm 2 mps 718 mmHg 58%
    06:00 +8°C° 0 mm 2 mps 718 mmHg 55%
    07:00 +10°C° 0 mm 2 mps 718 mmHg 51%
    08:00 +12°C° 0 mm 3 mps 718 mmHg 47%
    09:00 +14°C° 0 mm 3 mps 718 mmHg 42%
    10:00 +15°C° 0 mm 4 mps 718 mmHg 38%
    11:00 +17°C° 0 mm 4 mps 717 mmHg 36%
    12:00 +17°C° 0 mm 4 mps 717 mmHg 34%
    13:00 +18°C° 0 mm 4 mps 717 mmHg 33%
    14:00 +18°C° 0 mm 4 mps 717 mmHg 34%
    15:00 +17°C° 0 mm 4 mps 717 mmHg 34%
    16:00 +17°C° 0 mm 4 mps 717 mmHg 35%
    17:00 +14°C° 0 mm 3 mps 717 mmHg 42%
    18:00 +13°C° 0 mm 2 mps 717 mmHg 49%
    19:00 +10°C° 0 mm 2 mps 716 mmHg 55%
    20:00 +9°C° 0 mm 2 mps 716 mmHg 56%
    21:00 +9°C° 0 mm 2 mps 717 mmHg 56%
    22:00 +8°C° 0 mm 2 mps 717 mmHg 57%
    23:00 +9°C° 0 mm 1 mps 716 mmHg 56%

    Tomorrow, 24 April, Tuesday

    Time Temperature Precipitation Wind Pressure Humidity
    00:00 +9°C° 0 mm 1 mps 716 mmHg 56%
    01:00 +8°C° 0 mm 1 mps 716 mmHg 56%
    02:00 +8°C° 0 mm 1 mps 716 mmHg 56%
    03:00 +8°C° 0 mm 1 mps 716 mmHg 57%
    04:00 +8°C° 0 mm 1 mps 715 mmHg 58%
    05:00 +10°C° 0 mm 1 mps 715 mmHg 53%
    06:00 +12°C° 0 mm 1 mps 715 mmHg 49%
    07:00 +14°C° 0 mm 1 mps 715 mmHg 44%
    08:00 +16°C° 0 mm 2 mps 714 mmHg 38%
    09:00 +18°C° 0 mm 2 mps 714 mmHg 32%
    10:00 +20°C° 0 mm 3 mps 713 mmHg 27%
    11:00 +20°C° 0 mm 3 mps 712 mmHg 26%
    12:00 +21°C° 0 mm 3 mps 712 mmHg 26%
    13:00 +22°C° 0 mm 4 mps 711 mmHg 26%
    14:00 +22°C° 0 mm 4 mps 710 mmHg 27%
    15:00 +22°C° 0 mm 4 mps 710 mmHg 28%
    16:00 +22°C° 0 mm 4 mps 709 mmHg 29%
    17:00 +19°C° 0 mm 3 mps 709 mmHg 35%
    18:00 +17°C° 0 mm 2 mps 708 mmHg 41%
    19:00 +14°C° 0 mm 2 mps 708 mmHg 48%
    20:00 +13°C° 0 mm 2 mps 708 mmHg 48%
    21:00 +12°C° 0 mm 2 mps 708 mmHg 49%
    22:00 +10°C° 0 mm 2 mps 709 mmHg 50%
    23:00 +10°C° 0 mm 2 mps 709 mmHg 59%

    Day after tomorrow, 25 April, Wednesday

    Time Temperature Precipitation Wind Pressure Humidity
    00:00 +9°C° 0 mm 2 mps 709 mmHg 67%
    01:00 +8°C° 0 mm 2 mps 710 mmHg 75%
    02:00 +8°C° 0 mm 2 mps 710 mmHg 80%
    03:00 +8°C° 0 mm 2 mps 710 mmHg 85%
    04:00 +7°C° 0 mm 2 mps 711 mmHg 91%
    05:00 +8°C° 0 mm 2 mps 712 mmHg 86%
    06:00 +8°C° 0 mm 3 mps 712 mmHg 82%
    07:00 +9°C° 0 mm 3 mps 713 mmHg 77%
    08:00 +10°C° 0.1 mm 3 mps 713 mmHg 72%
    09:00 +10°C° 0.1 mm 3 mps 714 mmHg 67%
    10:00 +11°C° 0.1 mm 3 mps 714 mmHg 62%
    11:00 +11°C° 0 mm 3 mps 714 mmHg 58%
    12:00 +12°C° 0 mm 3 mps 715 mmHg 54%
    13:00 +13°C° 0 mm 3 mps 715 mmHg 51%
    14:00 +13°C° 0 mm 3 mps 715 mmHg 50%
    15:00 +13°C° 0 mm 3 mps 714 mmHg 48%
    16:00 +13°C° 0 mm 3 mps 714 mmHg 47%
    17:00 +12°C° 0 mm 2 mps 714 mmHg 52%
    18:00 +9°C° 0 mm 2 mps 714 mmHg 58%
    19:00 +8°C° 0 mm 1 mps 714 mmHg 63%
    20:00 +7°C° 0 mm 1 mps 715 mmHg 66%
    21:00 +6°C° 0 mm 1 mps 715 mmHg 68%
    22:00 +6°C° 0 mm 1 mps 715 mmHg 71%
    23:00 +6°C° 0 mm 1 mps 715 mmHg 69%

    26 April, Thursday

    Time Temperature Precipitation Wind Pressure Humidity
    00:00 +6°C° 0 mm 1 mps 715 mmHg 67%
    01:00 +6°C° 0 mm 1 mps 715 mmHg 65%
    02:00 +6°C° 0 mm 1 mps 715 mmHg 63%
    03:00 +6°C° 0 mm 1 mps 715 mmHg 60%
    04:00 +6°C° 0 mm 1 mps 715 mmHg 57%
    05:00 +8°C° 0 mm 1 mps 715 mmHg 50%
    06:00 +10°C° 0 mm 1 mps 715 mmHg 43%
    07:00 +11°C° 0 mm 1 mps 715 mmHg 36%
    08:00 +13°C° 0 mm 2 mps 715 mmHg 33%
    09:00 +15°C° 0 mm 2 mps 715 mmHg 30%
    10:00 +17°C° 0 mm 3 mps 715 mmHg 27%
    11:00 +17°C° 0 mm 3 mps 714 mmHg 31%
    12:00 +17°C° 0 mm 3 mps 714 mmHg 34%
    13:00 +18°C° 0 mm 4 mps 713 mmHg 38%
    14:00 +18°C° 0 mm 4 mps 713 mmHg 42%
    15:00 +17°C° 0 mm 4 mps 713 mmHg 46%
    16:00 +17°C° 0 mm 3 mps 713 mmHg 50%
    17:00 +16°C° 0 mm 3 mps 712 mmHg 56%
    18:00 +14°C° 0 mm 2 mps 712 mmHg 63%
    19:00 +12°C° 0 mm 2 mps 712 mmHg 69%
    20:00 +12°C° 0 mm 1 mps 712 mmHg 73%
    21:00 +11°C° 0 mm 1 mps 712 mmHg 76%
    22:00 +10°C° 0 mm 1 mps 712 mmHg 79%
    23:00 +10°C° 0.2 mm 1 mps 712 mmHg 80%

    27 April, Friday

    Time Temperature Precipitation Wind Pressure Humidity
    00:00 +10°C° 0.2 mm 1 mps 712 mmHg 81%
    01:00 +10°C° 0.2 mm 1 mps 712 mmHg 82%
    02:00 +10°C° 0.6 mm 1 mps 712 mmHg 83%
    03:00 +10°C° 0.6 mm 1 mps 712 mmHg 85%
    04:00 +8°C° 0.6 mm 2 mps 712 mmHg 87%
    05:00 +9°C° 0 mm 2 mps 712 mmHg 85%
    06:00 +9°C° 0 mm 2 mps 713 mmHg 83%
    07:00 +10°C° 0 mm 3 mps 713 mmHg 81%
    08:00 +11°C° 0 mm 3 mps 713 mmHg 75%
    09:00 +11°C° 0 mm 3 mps 714 mmHg 69%
    10:00 +12°C° 0 mm 4 mps 714 mmHg 63%
    11:00 +13°C° 0 mm 5 mps 714 mmHg 53%
    12:00 +13°C° 0 mm 5 mps 714 mmHg 44%
    13:00 +13°C° 0 mm 6 mps 714 mmHg 35%
    14:00 +13°C° 0 mm 6 mps 714 mmHg 34%
    15:00 +13°C° 0 mm 5 mps 714 mmHg 33%
    16:00 +13°C° 0 mm 5 mps 714 mmHg 32%
    17:00 +11°C° 0 mm 4 mps 714 mmHg 37%
    18:00 +10°C° 0 mm 3 mps 715 mmHg 41%
    19:00 +8°C° 0 mm 2 mps 715 mmHg 45%
    20:00 +7°C° 0 mm 2 mps 715 mmHg 49%
    21:00 +7°C° 0 mm 2 mps 715 mmHg 52%
    22:00 +6°C° 0 mm 2 mps 716 mmHg 55%
    23:00 +6°C° 0 mm 1 mps 715 mmHg 57%

    28 April, Saturday

    Time Temperature Precipitation Wind Pressure Humidity
    00:00 +6°C° 0 mm 1 mps 715 mmHg 59%
    01:00 +5°C° 0 mm 1 mps 715 mmHg 61%
    02:00 +5°C° 0 mm 1 mps 715 mmHg 62%
    03:00 +5°C° 0 mm 1 mps 715 mmHg 62%
    04:00 +4°C° 0 mm 1 mps 715 mmHg 63%
    05:00 +6°C° 0 mm 1 mps 715 mmHg 58%
    06:00 +7°C° 0 mm 1 mps 715 mmHg 52%
    07:00 +8°C° 0 mm 1 mps 715 mmHg 47%
    08:00 +9°C° 0 mm 1 mps 715 mmHg 43%
    09:00 +9°C° 0 mm 2 mps 715 mmHg 39%
    10:00 +10°C° 0 mm 2 mps 715 mmHg 36%
    11:00 +10°C° 0 mm 2 mps 714 mmHg 37%
    12:00 +10°C° 0 mm 3 mps 714 mmHg 38%
    13:00 +10°C° 0 mm 3 mps 713 mmHg 38%
    14:00 +9°C° 0.1 mm 3 mps 713 mmHg 41%
    15:00 +8°C° 0.1 mm 3 mps 713 mmHg 44%
    16:00 +8°C° 0.1 mm 3 mps 713 mmHg 47%
    17:00 +7°C° 0 mm 3 mps 713 mmHg 49%
    18:00 +6°C° 0 mm 2 mps 713 mmHg 51%
    19:00 +5°C° 0 mm 2 mps 713 mmHg 53%
    20:00 +4°C° 0 mm 2 mps 714 mmHg 55%
    21:00 +3°C° 0 mm 2 mps 714 mmHg 57%
    22:00 +2°C° 0 mm 2 mps 714 mmHg 59%
    23:00 +2°C° 0 mm 2 mps 714 mmHg 62%
    Show more